#timestamp,LO_Frequency,Hit,StdDev 
1510812015.9,286046985.5,N
1510812035.7,286046984.8,N
1510812055.5,286046975.7,Y
1510812075.4,286046973.9,P
1510812095.2,286046966.3,P
1510812115.0,286046960.8,P
1510812115.9,286046960.8,Y
1510812135.8,286046987.8,P
1510812155.6,286046985.8,N
1510812175.4,286046987.2,N
1510812195.2,286046984.6,N
1510812215.1,286046984.1,Y
1510812216.0,286046984.1,P
1510812235.8,286047001.0,P
1510812255.7,286046995.0,N
1510812275.5,286046986.8,N
1510812295.3,286046979.1,Y
1510812315.2,286046986.8,P
1510812335.9,286046981.1,P
1510812355.7,286046976.1,P
1510812375.6,286046967.8,Y
1510812395.4,286046981.9,P
1510812415.2,286046977.5,P
1510812435.0,286046978.4,P
1510812436.0,286046978.4,Y
1510812455.8,286046995.3,P
1510812475.6,286046994.4,N
1510812495.5,286046992.3,N
1510812515.3,286046989.2,N
1510812535.1,286046989.5,N
1510812555.9,286046985.0,Y
1510812575.7,286046993.3,P
1510812595.5,286046987.2,P
1510812615.3,286046985.1,P
1510812635.2,286046983.3,Y
1510812655.0,286046987.1,P
1510812655.9,286046987.1,P
1510812675.8,286046984.5,P
1510812695.6,286046985.1,Y
1510812715.4,286046997.5,P
1510812735.3,286047002.9,N
1510812755.1,286047004.1,N
1510812756.0,286047004.1,N
1510812775.8,286047000.6,N
1510812795.6,286047005.1,N
1510812815.5,286047001.6,N
1510812835.3,286046996.5,N
1510812855.1,286046999.5,N
1510812875.9,286046996.8,N
1510812895.7,286046995.0,N
1510812915.5,286046998.8,N
1510812935.4,286046995.5,N
1510812955.2,286046999.8,N
1510812975.0,286046999.4,N
1510812975.9,286046999.4,N
1510812995.8,286046992.4,N
1510813015.6,286046992.4,N
1510813035.4,286046992.8,N
1510813055.2,286046991.8,N
1510813075.1,286046994.7,N
1510813076.0,286046994.7,N
1510813095.8,286046996.9,N
1510813115.6,286047001.0,N
1510813135.5,286047000.7,N
1510813155.3,286046997.5,N
1510813175.1,286046993.4,N
1510813195.9,286046993.6,N
1510813215.7,286046994.4,N
1510813235.5,286046993.6,N
1510813255.4,286046995.3,N
1510813275.2,286046996.5,N
1510813295.0,286047001.1,N
1510813295.9,286047001.1,N
1510813315.8,286047003.9,N
1510813335.6,286047008.9,N
1510813355.4,286047008.1,N
1510813375.3,286047013.8,Y
1510813395.1,286047019.5,P
1510813396.0,286047019.5,N
1510813415.8,286047019.0,N
1510813435.7,286047024.1,N
1510813455.5,286047024.2,N
1510813475.3,286047022.5,N
1510813495.1,286047024.1,N
1510813515.9,286047028.6,Y
1510813535.7,286047014.8,P
1510813555.5,286047018.0,P
1510813575.4,286047019.7,P
1510813595.2,286047017.3,Y
1510813615.0,286047002.5,P
1510813616.0,286047002.5,N
1510813635.8,286046996.8,N
1510813655.6,286046995.8,N
1510813675.4,286046995.5,N
1510813695.3,286046999.3,N
1510813715.1,286046998.0,N
1510813735.8,286046999.6,N
1510813755.7,286046998.0,N
1510813775.5,286046996.3,N
1510813795.3,286046993.3,N
1510813815.2,286046996.0,N
1510813835.9,286046994.9,N
1510813855.7,286046996.0,N
1510813875.6,286046990.1,N
1510813895.4,286046991.4,N
1510813915.2,286046993.0,N
1510813935.0,286046993.0,N
1510813935.9,286046993.0,N
1510813955.8,286046996.0,N
1510813975.6,286046995.2,N
1510813995.4,286046995.7,N
1510814015.3,286046997.2,N
1510814035.1,286046997.4,N
1510814055.8,286046996.0,N
1510814075.7,286046998.4,N
1510814095.5,286046998.3,N
1510814115.3,286047000.4,N
1510814135.2,286046998.3,N
1510814155.9,286046999.5,N
1510814175.7,286046997.1,N
1510814195.6,286046994.1,N
1510814215.4,286046993.4,N
1510814235.2,286046992.4,Y
1510814255.1,286046996.2,P
1510814256.0,286046996.2,P
1510814275.8,286046997.9,P
1510814295.6,286046995.8,Y
1510814315.5,286047000.6,P
1510814335.3,286047000.2,N
1510814355.1,286047005.2,N
1510814375.9,286047008.4,N
1510814395.7,286047008.6,N
1510814415.5,286047008.9,N
1510814435.3,286047009.4,N
1510814455.2,286047010.3,N
1510814475.0,286047012.4,N
1510814475.9,286047012.4,N
1510814495.7,286047009.5,N
1510814515.6,286047007.3,N
1510814535.4,286047006.8,N
1510814555.2,286047008.9,N
1510814575.1,286047006.2,N
1510814576.0,286047006.2,N
1510814595.8,286047007.8,N
1510814615.6,286047011.9,N
1510814635.5,286047009.6,N
1510814655.3,286047009.8,N
1510814675.1,286047009.5,N
1510814695.9,286047010.7,N
1510814715.7,286047008.0,N
1510814735.5,286047006.2,N
1510814755.3,286047008.3,N
1510814775.2,286047008.4,N
1510814795.0,286047008.7,N
1510814795.9,286047008.7,N
1510814815.7,286047004.8,N
1510814835.6,286047005.4,N
1510814855.4,286047003.2,N
1510814875.2,286047005.6,N
1510814895.1,286046999.9,N
1510814896.0,286046999.9,N
1510814915.8,286046998.2,N
1510814935.6,286046999.4,N
1510814955.5,286047000.5,N
1510814975.3,286047002.7,N
1510814995.1,286046999.6,N
1510815015.9,286046999.0,N
1510815035.7,286046997.5,N
1510815055.5,286046998.4,N
1510815075.3,286047000.9,N
1510815095.2,286046999.4,N
1510815115.0,286046998.5,N
1510815115.9,286046998.5,N
1510815135.7,286047001.0,N
1510815155.6,286046999.9,N
1510815175.4,286047004.3,N
1510815195.2,286047001.8,N
1510815215.1,286047002.2,N
1510815216.0,286047002.2,N
1510815235.8,286047002.7,N
1510815255.6,286047001.1,N
1510815275.5,286047002.7,N
1510815295.3,286046999.1,N
1510815315.1,286047000.6,N
1510815335.9,286047000.3,N
1510815355.7,286047000.3,N
1510815375.5,286047004.0,N
1510815395.4,286046998.4,N
1510815415.2,286046996.9,N
1510815435.0,286046997.8,N
1510815435.9,286046997.8,N
1510815455.8,286046993.8,Y
1510815475.6,286046996.1,P
1510815495.4,286046996.1,N
1510815515.3,286046999.5,N
1510815535.1,286046996.7,N
1510815536.0,286046996.7,N
1510815555.8,286046998.8,N
1510815575.7,286047002.4,N
1510815595.5,286047003.4,N
